When you browse on this site, cookies collect data to enhance your experience and personalize the content and advertising you see.
Visit our Privacy Policy to learn more. By continuing to use the site, you agree to this use of cookies and data.
EN

Hourly Weather Shadki

Today, 29 September, Tuesday

Time Temperature Precipitation Wind Pressure Humidity
00:00 +9°C° 0 mm 0 mps 767 mmHg 66%
01:00 +9°C° 0 mm 0 mps 767 mmHg 67%
02:00 +9°C° 0 mm 0 mps 767 mmHg 68%
03:00 +8°C° 0 mm 0 mps 767 mmHg 67%
04:00 +8°C° 0 mm 0 mps 767 mmHg 68%
05:00 +8°C° 0 mm 0 mps 767 mmHg 68%
06:00 +8°C° 0 mm 0 mps 767 mmHg 69%
07:00 +11°C° 0 mm 1 mps 767 mmHg 64%
08:00 +12°C° 0 mm 1 mps 767 mmHg 60%
09:00 +14°C° 0 mm 1 mps 767 mmHg 56%
10:00 +15°C° 0 mm 1 mps 767 mmHg 53%
11:00 +16°C° 0 mm 1 mps 767 mmHg 50%
12:00 +17°C° 0 mm 2 mps 767 mmHg 47%
13:00 +18°C° 0 mm 1 mps 767 mmHg 48%
14:00 +19°C° 0 mm 1 mps 767 mmHg 48%
15:00 +19°C° 0 mm 1 mps 766 mmHg 48%
16:00 +16°C° 0 mm 1 mps 766 mmHg 52%
17:00 +15°C° 0 mm 1 mps 766 mmHg 56%
18:00 +13°C° 0 mm 1 mps 766 mmHg 60%
19:00 +13°C° 0 mm 1 mps 766 mmHg 62%
20:00 +12°C° 0 mm 1 mps 766 mmHg 63%
21:00 +12°C° 0 mm 2 mps 766 mmHg 65%
22:00 +12°C° 0 mm 2 mps 766 mmHg 67%
23:00 +10°C° 0 mm 2 mps 765 mmHg 68%

Tomorrow, 30 September, Wednesday

Time Temperature Precipitation Wind Pressure Humidity
00:00 +10°C° 0 mm 2 mps 765 mmHg 70%
01:00 +10°C° 0 mm 2 mps 765 mmHg 72%
02:00 +10°C° 0 mm 2 mps 766 mmHg 73%
03:00 +10°C° 0 mm 2 mps 766 mmHg 74%
04:00 +9°C° 0 mm 2 mps 766 mmHg 76%
05:00 +9°C° 0 mm 2 mps 765 mmHg 78%
06:00 +9°C° 0 mm 2 mps 765 mmHg 80%
07:00 +12°C° 0 mm 2 mps 765 mmHg 77%
08:00 +13°C° 0 mm 2 mps 765 mmHg 74%
09:00 +14°C° 0 mm 2 mps 766 mmHg 71%
10:00 +15°C° 0 mm 2 mps 765 mmHg 68%
11:00 +16°C° 0 mm 3 mps 765 mmHg 65%
12:00 +17°C° 0 mm 3 mps 765 mmHg 62%
13:00 +17°C° 0 mm 3 mps 765 mmHg 62%
14:00 +18°C° 0 mm 3 mps 765 mmHg 61%
15:00 +18°C° 0 mm 3 mps 765 mmHg 61%
16:00 +16°C° 0 mm 3 mps 765 mmHg 67%
17:00 +15°C° 0 mm 2 mps 765 mmHg 73%
18:00 +14°C° 0 mm 2 mps 764 mmHg 78%
19:00 +13°C° 0 mm 2 mps 765 mmHg 80%
20:00 +13°C° 0 mm 2 mps 765 mmHg 82%
21:00 +12°C° 0 mm 2 mps 765 mmHg 84%
22:00 +12°C° 0 mm 2 mps 765 mmHg 84%
23:00 +12°C° 0 mm 2 mps 765 mmHg 85%

Day after tomorrow, 1 October, Thursday

Time Temperature Precipitation Wind Pressure Humidity
00:00 +10°C° 0 mm 2 mps 765 mmHg 85%
01:00 +10°C° 0 mm 2 mps 765 mmHg 84%
02:00 +10°C° 0 mm 2 mps 765 mmHg 83%
03:00 +10°C° 0 mm 2 mps 765 mmHg 83%
04:00 +9°C° 0 mm 2 mps 765 mmHg 82%
05:00 +9°C° 0 mm 2 mps 765 mmHg 82%
06:00 +9°C° 0 mm 2 mps 765 mmHg 82%
07:00 +12°C° 0 mm 2 mps 765 mmHg 75%
08:00 +13°C° 0 mm 2 mps 765 mmHg 69%
09:00 +15°C° 0 mm 2 mps 765 mmHg 63%
10:00 +16°C° 0 mm 2 mps 765 mmHg 59%
11:00 +17°C° 0 mm 2 mps 765 mmHg 55%
12:00 +18°C° 0 mm 2 mps 765 mmHg 51%
13:00 +19°C° 0 mm 1 mps 765 mmHg 51%
14:00 +19°C° 0 mm 1 mps 765 mmHg 51%
15:00 +19°C° 0 mm 1 mps 765 mmHg 51%
16:00 +16°C° 0 mm 0 mps 764 mmHg 56%
17:00 +14°C° 0 mm 0 mps 764 mmHg 60%
18:00 +12°C° 0 mm 0 mps 764 mmHg 64%
19:00 +12°C° 0 mm 0 mps 764 mmHg 65%
20:00 +12°C° 0 mm 0 mps 764 mmHg 67%
21:00 +11°C° 0 mm 0 mps 764 mmHg 68%
22:00 +11°C° 0 mm 0 mps 764 mmHg 68%
23:00 +11°C° 0 mm 0 mps 764 mmHg 69%

2 October, Friday

Time Temperature Precipitation Wind Pressure Humidity
00:00 +11°C° 0 mm 0 mps 764 mmHg 70%
01:00 +10°C° 0 mm 0 mps 764 mmHg 71%
02:00 +10°C° 0 mm 0 mps 764 mmHg 72%
03:00 +10°C° 0 mm 0 mps 764 mmHg 72%
04:00 +10°C° 0 mm 0 mps 764 mmHg 73%
05:00 +9°C° 0 mm 0 mps 764 mmHg 75%
06:00 +10°C° 0 mm 1 mps 764 mmHg 76%
07:00 +12°C° 0 mm 1 mps 764 mmHg 70%
08:00 +12°C° 0 mm 0 mps 764 mmHg 65%
09:00 +14°C° 0 mm 0 mps 764 mmHg 59%
10:00 +15°C° 0 mm 0 mps 764 mmHg 56%
11:00 +16°C° 0 mm 0 mps 764 mmHg 53%
12:00 +17°C° 0 mm 0 mps 764 mmHg 50%
13:00 +19°C° 0 mm 1 mps 763 mmHg 51%
14:00 +19°C° 0 mm 1 mps 763 mmHg 52%
15:00 +19°C° 0 mm 1 mps 763 mmHg 52%
16:00 +16°C° 0 mm 1 mps 763 mmHg 57%
17:00 +15°C° 0 mm 1 mps 763 mmHg 62%
18:00 +13°C° 0 mm 1 mps 763 mmHg 67%
19:00 +13°C° 0 mm 1 mps 763 mmHg 69%
20:00 +12°C° 0 mm 1 mps 763 mmHg 72%
21:00 +12°C° 0 mm 1 mps 763 mmHg 74%
22:00 +11°C° 0 mm 1 mps 763 mmHg 76%
23:00 +11°C° 0 mm 1 mps 763 mmHg 78%

3 October, Saturday

Time Temperature Precipitation Wind Pressure Humidity
00:00 +11°C° 0 mm 1 mps 763 mmHg 80%
01:00 +10°C° 0 mm 1 mps 763 mmHg 82%
02:00 +10°C° 0 mm 1 mps 763 mmHg 84%
03:00 +10°C° 0 mm 1 mps 763 mmHg 85%
04:00 +10°C° 0 mm 1 mps 763 mmHg 86%
05:00 +9°C° 0 mm 1 mps 763 mmHg 87%
06:00 +9°C° 0 mm 1 mps 763 mmHg 88%
07:00 +9°C° 0 mm 2 mps 763 mmHg 83%
08:00 +12°C° 0 mm 2 mps 763 mmHg 78%
09:00 +13°C° 0 mm 2 mps 763 mmHg 73%
10:00 +14°C° 0 mm 2 mps 763 mmHg 69%
11:00 +16°C° 0 mm 2 mps 763 mmHg 65%
12:00 +17°C° 0 mm 2 mps 763 mmHg 61%
13:00 +17°C° 0 mm 2 mps 763 mmHg 61%
14:00 +17°C° 0 mm 2 mps 763 mmHg 61%
15:00 +17°C° 0 mm 2 mps 763 mmHg 61%
16:00 +15°C° 0 mm 2 mps 763 mmHg 68%
17:00 +14°C° 0 mm 2 mps 763 mmHg 75%
18:00 +12°C° 0 mm 2 mps 763 mmHg 81%
19:00 +12°C° 0 mm 2 mps 763 mmHg 83%
20:00 +10°C° 0 mm 2 mps 763 mmHg 86%
21:00 +10°C° 0 mm 2 mps 763 mmHg 88%
22:00 +9°C° 0 mm 2 mps 763 mmHg 87%
23:00 +9°C° 0 mm 2 mps 764 mmHg 87%

4 October, Sunday

Time Temperature Precipitation Wind Pressure Humidity
00:00 +8°C° 0 mm 2 mps 764 mmHg 86%
01:00 +8°C° 0 mm 2 mps 764 mmHg 87%
02:00 +8°C° 0 mm 2 mps 764 mmHg 88%
03:00 +7°C° 0 mm 2 mps 764 mmHg 89%
04:00 +7°C° 0 mm 2 mps 764 mmHg 90%
05:00 +7°C° 0 mm 2 mps 764 mmHg 91%
06:00 +7°C° 0 mm 2 mps 764 mmHg 92%
07:00 +8°C° 0 mm 2 mps 764 mmHg 88%
08:00 +9°C° 0 mm 3 mps 764 mmHg 85%
09:00 +10°C° 0 mm 3 mps 764 mmHg 81%
10:00 +11°C° 0 mm 3 mps 764 mmHg 77%
11:00 +12°C° 0 mm 3 mps 764 mmHg 73%
12:00 +13°C° 0 mm 3 mps 764 mmHg 68%
13:00 +12°C° 0 mm 3 mps 764 mmHg 67%
14:00 +12°C° 0 mm 3 mps 764 mmHg 66%
15:00 +12°C° 0 mm 3 mps 764 mmHg 65%
16:00 +11°C° 0 mm 3 mps 764 mmHg 67%
17:00 +9°C° 0 mm 3 mps 764 mmHg 69%
18:00 +8°C° 0 mm 3 mps 765 mmHg 72%
19:00 +7°C° 0 mm 3 mps 765 mmHg 72%
20:00 +7°C° 0 mm 3 mps 765 mmHg 73%
21:00 +5°C° 0 mm 3 mps 765 mmHg 74%
22:00 +4°C° 0 mm 3 mps 765 mmHg 76%
23:00 +4°C° 0 mm 3 mps 766 mmHg 79%
Show more